This demonstration page uses our WeatherBlox Daily Observations layout. Learn more.

Left ArrowRight Arrow

39.12711, -84.51439

Hourly Observations for January 8, 2022

Temp ( °F °C ) Dew Point ( °F °C ) Humidity (%) Winds ( mph kmh ) Pressure ( in mb ) Visibility ( mi km ) Precip ( " mm )
12:53 am 00:53 Clear 13 -10.6 8 -13.3 81 81 SSE 6 9 30.49 1033 10 16 0.00 0.00
1:53 am 01:53 Clear 13 -10.6 8 -13.3 81 81 Calm 30.48 1032 10 16 0.00 0.00
2:53 am 02:53 Clear 13 -10.6 8 -13.3 81 81 Calm 30.52 1034 10 16 0.00 0.00
3:53 am 03:53 Clear 13 -10.6 7 -13.9 77 77 E 3 6 30.51 1033 10 16 0.00 0.00
4:53 am 04:53 Clear 13 -10.6 8 -13.3 81 81 ENE 3 6 30.51 1033 10 16 0.00 0.00
5:53 am 05:53 Clear 13 -10.6 8 -13.3 81 81 Calm 30.51 1033 10 16 0.00 0.00
6:53 am 06:53 Clear 13 -10.6 9 -12.8 84 84 Calm 30.50 1033 10 16 0.00 0.00
7:53 am 07:53 Clear 15 -9.4 9 -12.8 77 77 Calm 30.48 1032 10 16 0.00 0.00
8:53 am 08:53 Sunny 17 -8.3 10 -12.2 74 74 Calm 30.48 1032 10 16 0.00 0.00
9:53 am 09:53 Sunny 21 -6.1 12 -11.1 68 68 Calm 30.46 1032 10 16 0.00 0.00
10:53 am 10:53 Sunny 24 -4.4 12 -11.1 60 60 VRB 5 7 30.45 1031 10 16 0.00 0.00
11:53 am 11:53 Sunny 28 -2.2 13 -10.6 53 53 ESE 8 13 30.39 1029 10 16 0.00 0.00
12:53 pm 12:53 Sunny 33 0.6 15 -9.4 47 47 S 10 17 30.35 1028 10 16 0.00 0.00
1:53 pm 13:53 Partly Cloudy 35 1.7 13 -10.6 40 40 S 10 17 30.33 1027 10 16 0.00 0.00
2:53 pm 14:53 Cloudy 37 2.8 15 -9.4 41 41 S 8 13 30.29 1026 10 16 0.00 0.00
3:53 pm 15:53 Cloudy 38 3.3 17 -8.3 43 43 S 10 17 30.28 1026 10 16 0.00 0.00
4:53 pm 16:53 Cloudy 38 3.3 18 -7.8 44 44 S 8 13 30.26 1025 10 16 0.00 0.00
5:53 pm 17:53 Cloudy 38 3.3 19 -7.2 46 46 S 7 11 30.24 1024 10 16 0.00 0.00
6:53 pm 18:53 Cloudy with Light Rain 38 3.3 24 -4.4 57 57 Calm 30.24 1024 10 16 0.00 0.00
7:53 pm 19:53 Cloudy with Light Rain 37 2.8 29 -1.7 73 73 W 7 11 30.26 1025 9 14 0.01 0.25
8:53 pm 20:53 Cloudy with Light Rain 36 2.2 34 1.1 93 93 Calm 30.25 1024 7 11 0.05 1.27
9:53 pm 21:53 Cloudy with Light Rain 35 1.7 34 1.1 96 96 SE 6 9 30.23 1024 6 10 0.02 0.51
10:53 pm 22:53 Cloudy with Light Rain 38 3.3 32 0 79 79 S 9 15 30.19 1022 10 16 0.01 0.25
11:53 pm 23:53 Cloudy with Light Rain 40 4.4 28 -2.2 63 63 SSW 7 11 30.16 1021 10 16 0.01 0.25

Powered by AerisWeather